Faro current weather conditions

sailwx.info

Wind from 280 at 4 knots

Air temperature 19.0° C
Dewpoint 13.0° C

Last reported at 2015-Sep-05 08:30 UTC.
Time now 2015-Sep-05 10:21 UTC

Location: N 37°01' W 007°58'.
View on Google Maps.

See reports from other nearby stations

  
Tides and Currents Weather Stations Pressure Air Temp Water Temp Dewpoint Dewpoint Depression Visibility Wind Speed Wind Dir Waves Ship Positions
date/time (UTC)wind fromknots sea level pressurealtimeterstation pressurevisibilityair tempwater tempwave heightnotes
2015-Sep-05 09:30 260 5 20.0
2015-Sep-05 09:00 270 4 20.0
2015-Sep-05 08:30 280 4 19.0
2015-Sep-05 08:00 280 3 19.0
2015-Sep-05 07:30 310 3 18.0
2015-Sep-05 07:00 360 4 17.0
2015-Sep-05 06:30 010 3 17.0
2015-Sep-05 06:00 17.0
2015-Sep-05 05:30 140 1 17.0
2015-Sep-05 05:00 17.0
2015-Sep-05 04:30 17.0
2015-Sep-05 04:00 16.0
2015-Sep-05 03:30 16.0
2015-Sep-05 03:00 020 3 16.0
2015-Sep-05 02:30 050 3 17.0
2015-Sep-05 02:00 050 2 18.0
2015-Sep-05 01:30 040 4 18.0
2015-Sep-05 01:00 110 1 19.0
2015-Sep-05 00:30 19.0
2015-Sep-05 00:00 18.0
2015-Sep-04 23:30 300 4 18.0
2015-Sep-04 23:00 340 5 19.0
2015-Sep-04 22:30 320 7 19.0
2015-Sep-04 22:00 310 10 19.0
2015-Sep-04 21:30 310 10 19.0
2015-Sep-04 21:00 310 10 20.0
2015-Sep-04 20:30 320 11 20.0
2015-Sep-04 20:00 320 12 20.0
2015-Sep-04 19:30 310 10 21.0
2015-Sep-04 19:00 310 12 22.0
2015-Sep-04 18:30 300 12 23.0
2015-Sep-04 18:00 260 15 21.0
2015-Sep-04 17:30 260 16 21.0
2015-Sep-04 17:00 260 18 21.0
2015-Sep-04 16:30 260 17 22.0
2015-Sep-04 16:00 260 20 22.0
2015-Sep-04 15:30 260 18 23.0
2015-Sep-04 15:00 260 17 23.0
2015-Sep-04 14:30 250 15 21.0
2015-Sep-04 14:00 260 16 23.0
2015-Sep-04 13:30 250 14 22.0
2015-Sep-04 13:00 250 14 22.0
2015-Sep-04 12:30 250 14 22.0
2015-Sep-04 12:00 250 13 21.0
2015-Sep-04 11:30 250 14 21.0
2015-Sep-04 11:00 300 8 23.0
2015-Sep-04 10:30 300 10 22.0
2015-Sep-04 10:00 320 10 21.0
2015-Sep-04 09:30 330 10 20.0
2015-Sep-04 09:00 320 11 20.0
2015-Sep-04 08:30 330 10 19.0
2015-Sep-04 08:00 320 7 18.0
2015-Sep-04 07:30 320 7 18.0
2015-Sep-04 07:00 320 5 17.0
2015-Sep-04 06:30 290 3 16.0
2015-Sep-04 06:00 300 4 16.0
2015-Sep-04 05:30 300 5 16.0
2015-Sep-04 05:00 290 8 16.0
2015-Sep-04 04:30 310 7 17.0
2015-Sep-04 04:00 320 8 17.0
2015-Sep-04 03:30 320 10 17.0
2015-Sep-04 03:00 330 10 17.0
2015-Sep-04 02:30 320 10 17.0
2015-Sep-04 02:00 320 10 17.0
2015-Sep-04 01:30 300 10 18.0
2015-Sep-04 01:00 310 10 18.0
2015-Sep-04 00:30 300 7 18.0
2015-Sep-04 00:00 310 9 18.0
2015-Sep-03 23:30 290 9 18.0
2015-Sep-03 23:00 300 9 19.0
2015-Sep-03 22:30 300 9 19.0
2015-Sep-03 22:00 300 11 19.0
2015-Sep-03 21:30 310 13 19.0
2015-Sep-03 21:00 310 14 19.0
2015-Sep-03 20:30 310 13 20.0
2015-Sep-03 20:00 310 16 20.0
2015-Sep-03 19:30 300 15 21.0
2015-Sep-03 19:00 300 15 22.0
2015-Sep-03 18:30 300 17 22.0
2015-Sep-03 18:00 280 16 22.0
2015-Sep-03 17:30 280 20 22.0
2015-Sep-03 17:00 270 20 22.0
2015-Sep-03 16:30 270 20 22.0
2015-Sep-03 16:00 270 20 23.0
2015-Sep-03 15:30 260 22 23.0
2015-Sep-03 15:00 260 19 23.0
2015-Sep-03 14:30 260 19 22.0
2015-Sep-03 14:00 250 17 22.0
2015-Sep-03 13:30 250 16 22.0
2015-Sep-03 13:00 240 17 23.0
2015-Sep-03 12:30 240 14 5.422.0
2015-Sep-03 12:00 230 13 5.422.0
2015-Sep-03 11:30 240 14 5.422.0
2015-Sep-03 11:00 320 11 5.423.0
2015-Sep-03 10:30 240 10 5.421.0
2015-Sep-03 10:00 310 13 5.421.0